Location: NJAA Observatory
(40.6819°N, 74.8979°W)
Time: 02:46:12
(UTC-05:00)

S-56A Canister/Altair - Visible Passes

Search period start: 12 February 2016 00:00
Search period end: 22 February 2016 00:00
Orbit: 639 x 2496 km, 38.9° (Epoch: 10 February)

Date Brightness Start Highest point End Pass type
(mag) Time Alt. Az. Time Alt. Az. Time Alt. Az.
12 Feb 9.5 18:06:50 10° W 18:16:01 78° S 18:29:35 10° ESE visible
12 Feb 10.1 20:11:03 10° W 20:21:46 52° SSW 20:27:39 35° SSE visible
12 Feb 11.1 22:17:34 10° W 22:25:08 23° SW 22:25:08 23° SW visible
13 Feb 9.4 17:34:37 10° W 17:43:12 79° S 17:56:11 10° ESE visible
13 Feb 10.0 19:38:37 10° W 19:48:49 55° SSW 19:57:32 25° SE visible
13 Feb 10.9 21:44:32 10° W 21:54:06 26° SW 21:55:03 26° SW visible
14 Feb 9.9 19:06:16 10° W 19:15:55 58° SSW 19:27:33 15° SE visible
14 Feb 10.8 21:11:40 10° W 21:21:14 28° SW 21:25:04 25° SSW visible
15 Feb 9.8 18:33:59 10° W 18:43:05 60° SSW 18:56:15 10° SE visible
15 Feb 10.7 20:38:57 10° W 20:48:22 31° SW 20:55:15 21° S visible
16 Feb 9.7 18:01:46 10° W 18:10:18 63° SSW 18:22:59 10° ESE visible
16 Feb 10.6 20:06:21 10° W 20:15:31 33° SW 20:25:35 14° SSE visible
17 Feb 10.5 19:33:52 10° W 19:42:43 36° SSW 19:54:29 10° SSE visible
17 Feb 11.5 21:43:49 10° WSW 21:47:31 12° SW 21:51:26 10° SSW visible
18 Feb 10.4 19:01:29 10° W 19:09:57 38° SSW 19:21:34 10° SSE visible
18 Feb 11.5 21:09:47 10° WSW 21:14:47 13° SW 21:20:18 10° SSW visible
19 Feb 10.3 18:29:10 10° W 18:37:14 40° SSW 18:48:35 10° SE visible
19 Feb 11.4 20:36:22 10° WSW 20:42:03 15° SW 20:48:34 10° SSW visible
20 Feb 10.2 17:56:56 10° W 18:04:34 42° SSW 18:15:33 10° SE visible
20 Feb 11.3 20:03:18 10° WSW 20:09:21 17° SW 20:16:30 10° S visible
21 Feb 11.2 19:30:29 10° WSW 19:36:40 18° SW 19:44:13 10° S visible
